[[{"header":{"parameterUnit":"m.s-1","parameterCategory":2,"la1":30.2991,"la2":30.254,"lo1":-89.0895,"lo2":-89.0444,"dy":0.0017,"dx":0.0017,"nx":28,"ny":28,"refTime":"2025-08-31T21:00:00:Z","depth":"0","parameterNumber":2,"parameterNumberName":"U-component_of_CURRENTS"},"data":[0,0,0,0,0,0,0,0,0,0,0,0,0,0,0,0,0,0,0,0,0,0,0,0,0,0,0,0,0,0,0,0,0,0,0,0,0,0,0,0,0,0,0,0,0,0,0,0,0,0,0,0,0,0,0,0,0,0,-0.3291,-0.3292,0,-0.3344,-0.3344,-0.3344,-0.3292,-0.3291,-0.3289,-0.3288,-0.322,-0.3219,-0.3219,0,0,0,0,0,0,0,0,0,0,0,0,0,-0.3043,-0.3048,-0.3291,-0.3292,-0.3294,-0.3344,-0.3344,-0.3344,-0.3293,-0.3291,-0.3289,-0.3287,-0.322,-0.3219,-0.3219,0,0,0,0,0,0,0,0,0,0,0,0,0,-0.3124,-0.305,-0.3291,-0.3278,-0.3278,-0.3344,-0.3344,-0.3344,-0.3293,-0.3291,-0.3288,-0.3286,-0.322,-0.3219,-0.3219,-0.3262,0,0,-0.3217,-0.3217,0,0,0,0,0,0,0,0,-0.3119,-0.3132,-0.3279,-0.3279,-0.3279,-0.3314,-0.3232,-0.3313,-0.3294,-0.3282,-0.3288,-0.3285,-0.3245,-0.3242,-0.3252,-0.3259,-0.3256,-0.3217,-0.3217,-0.3216,-0.3216,0,0,0,0,0,0,0,-0.3114,-0.3129,-0.3307,-0.328,-0.328,-0.3234,-0.3243,-0.3246,-0.3269,-0.3282,-0.328,-0.3295,-0.3243,-0.3252,-0.3249,-0.3255,-0.3217,-0.3217,-0.3216,-0.3216,-0.329,-0.3293,0,0,0,0,0,0,-0.3128,-0.3126,-0.3305,-0.3309,-0.3198,-0.3241,-0.3251,-0.3301,-0.3272,-0.3268,-0.3297,-0.3293,-0.3254,-0.325,-0.3247,-0.3253,-0.3216,-0.3216,-0.3216,-0.3288,-0.3291,-0.3293,0,0,0,0,0,0,-0.3123,-0.3145,-0.3303,-0.3219,-0.3237,-0.3249,-0.3304,-0.3303,-0.3301,-0.3285,-0.3277,-0.3295,-0.3252,-0.3247,-0.3266,-0.3251,-0.3216,-0.3215,-0.3285,-0.3289,-0.3292,-0.3292,0,0,0,0,0,0,-0.3116,-0.3143,-0.316,-0.3222,-0.3243,-0.3349,-0.3307,-0.3306,-0.3317,-0.3311,-0.3282,-0.3274,-0.325,-0.3267,-0.3265,-0.3249,-0.3215,-0.3282,-0.3287,-0.3291,-0.3289,-0.3295,-0.33,0,0,0,0,0,-0.3107,-0.3136,-0.3162,-0.3182,-0.3275,-0.3351,-0.3357,-0.3351,-0.3319,-0.3336,-0.3323,-0.3274,-0.3292,-0.3269,-0.3266,-0.3249,-0.328,-0.3286,-0.3291,-0.3287,-0.3294,-0.33,0,0,0,0,0,0,-0.3013,-0.3137,-0.3164,-0.3224,-0.3291,-0.3344,-0.335,-0.3356,-0.336,-0.3342,-0.3311,-0.3305,-0.3318,-0.3305,-0.3281,-0.3292,-0.3276,-0.3281,-0.3274,-0.328,-0.3286,-0.3207,-0.3214,0,0,0,0,0,-0.3015,-0.3073,-0.3183,-0.3222,-0.3268,-0.3312,-0.3332,-0.3346,-0.337,-0.3368,-0.3357,-0.3346,-0.3344,-0.3328,-0.3341,-0.3344,-0.3287,-0.3336,-0.3341,-0.3345,-0.3286,-0.3205,-0.3194,-0.331,-0.331,-0.331,0,0,-0.298,-0.3057,-0.3083,-0.3206,-0.3253,-0.3296,-0.3316,-0.3365,-0.3367,-0.3361,-0.3354,-0.3375,-0.336,-0.337,-0.337,-0.3345,-0.33,-0.3352,-0.3355,-0.3291,-0.3208,-0.3196,-0.3184,-0.3314,-0.3313,-0.3313,0,0,-0.2933,-0.303,-0.306,-0.3132,-0.3229,-0.3275,-0.3294,-0.3374,-0.3381,-0.3417,-0.3402,-0.341,-0.3425,-0.3395,-0.338,-0.3426,-0.3349,-0.3448,-0.3378,-0.3303,-0.3289,-0.3277,-0.3244,-0.3228,-0.3427,-0.3427,-0.3427,0,-0.288,-0.2945,-0.3071,-0.312,-0.3148,-0.3263,-0.3276,-0.3326,-0.3387,-0.3373,-0.3414,-0.3404,-0.3418,-0.3357,-0.3386,-0.3424,-0.3383,-0.3346,-0.33,-0.3286,-0.3273,-0.3242,-0.3224,-0.3428,-0.3428,-0.3428,-0.3428,0,-0.2862,-0.2908,-0.2937,-0.3038,-0.309,-0.3135,-0.3238,-0.3274,-0.331,-0.3336,-0.3335,-0.3378,-0.3343,-0.338,-0.3394,-0.3315,-0.3322,-0.3329,-0.3261,-0.326,-0.3231,-0.3212,-0.3429,-0.3428,-0.3428,-0.3428,0,0,-0.2763,-0.2893,-0.2899,-0.2924,-0.305,-0.3098,-0.3119,-0.3162,-0.3151,-0.3224,-0.3176,-0.3218,-0.3239,-0.3224,-0.3254,-0.3201,-0.3134,-0.322,-0.3216,-0.3148,-0.2981,-0.2958,-0.2936,-0.3121,-0.3116,-0.3113,-0.3015,0,-0.2701,-0.2745,-0.282,-0.2839,-0.2878,-0.2973,-0.2987,-0.3037,-0.3089,-0.3099,-0.3121,-0.3131,-0.3181,-0.3187,-0.3133,-0.3151,-0.3076,-0.316,-0.3024,-0.3019,-0.2964,-0.2909,-0.284,-0.2741,-0.2997,-0.2993,-0.2991,0,-0.2656,-0.2695,-0.2693,-0.2755,-0.2779,-0.2795,-0.2827,-0.2859,-0.29,-0.2938,-0.2921,-0.2977,-0.2939,-0.3001,-0.2914,-0.2965,-0.2942,-0.2947,-0.2944,-0.2882,-0.2957,-0.2777,-0.2697,-0.2699,-0.2962,-0.2964,-0.2967,0,-0.254,-0.2602,-0.2585,-0.2616,-0.2709,-0.2692,-0.273,-0.2782,-0.2811,-0.2829,-0.2853,-0.2815,-0.2831,-0.2768,-0.2817,-0.2847,-0.2727,-0.2771,-0.2707,-0.271,-0.2596,-0.2593,-0.2448,-0.2633,-0.2633,-0.2633,-0.2634,0,-0.2461,-0.2454,-0.2534,-0.2541,-0.2525,-0.261,-0.2597,-0.2637,-0.2684,-0.2704,-0.2758,-0.2766,-0.277,-0.2746,-0.2744,-0.2672,-0.2654,-0.2644,-0.2648,-0.2608,-0.2608,-0.2562,-0.2593,-0.263,-0.2631,-0.2631,-0.2632,0,-0.2349,-0.2398,-0.2402,-0.2464,-0.248,-0.2474,-0.2547,-0.2552,-0.2611,-0.2631,-0.2641,-0.2706,-0.2681,-0.2681,-0.2618,-0.2591,-0.2486,-0.2499,-0.2481,-0.2481,-0.2416,-0.2452,-0.2244,-0.2176,-0.2383,-0.2381,-0.238,0,-0.2293,-0.2282,-0.234,-0.2343,-0.2367,-0.2386,-0.2406,-0.2494,-0.2519,-0.2603,-0.2603,-0.2613,-0.261,-0.2526,-0.2479,-0.2403,-0.2406,-0.2287,-0.2306,-0.2344,-0.2388,-0.2404,-0.2364,-0.2192,-0.219,-0.2187,-0.2185,0,-0.2181,-0.2204,-0.2215,-0.223,-0.2246,-0.2272,-0.231,-0.2326,-0.2429,-0.2457,-0.2488,-0.2492,-0.2467,-0.2384,-0.2311,-0.2257,-0.2237,-0.2235,-0.2245,-0.2166,-0.2196,-0.2158,-0.238,-0.2165,-0.2167,-0.2168,-0.2169,-0.217,-0.2087,-0.2075,-0.2095,-0.2096,-0.212,-0.2127,-0.2104,-0.2174,-0.2193,-0.2225,-0.2321,-0.2318,-0.231,-0.2208,-0.2154,-0.2056,-0.2081,-0.2006,-0.2033,-0.2038,-0.1978,-0.2171,-0.1987,-0.1988,-0.1989,-0.1989,-0.199,0,-0.1962,-0.1964,-0.1961,-0.1961,-0.1934,-0.1993,-0.2016,-0.1981,-0.1962,-0.2055,-0.2071,-0.2123,-0.205,-0.2053,-0.1983,-0.1895,-0.1835,-0.1846,-0.1846,-0.1803,-0.1931,-0.1931,-0.1761,-0.1761,-0.1761,-0.1761,-0.1761,-0.1761,-0.1895,-0.1849,-0.1854,-0.1765,-0.1762,-0.1687,-0.1668,-0.1651,-0.1686,-0.1708,-0.1794,-0.1908,-0.1943,-0.2056,-0.1948,-0.1845,-0.1786,-0.1724,-0.1728,-0.1859,-0.1877,-0.1894,-0.1899,-0.1725,-0.1725,-0.154,-0.1539,-0.1538]},{"header":{"parameterUnit":"m.s-1","parameterCategory":2,"la1":30.2991,"la2":30.254,"lo1":-89.0895,"lo2":-89.0444,"dy":0.0017,"dx":0.0017,"nx":28,"ny":28,"refTime":"2025-08-31T21:00:00:Z","depth":"0","parameterNumber":3,"parameterNumberName":"V-component_of_CURRENTS"},"data":[0,0,0,0,0,0,0,0,0,0,0,0,0,0,0,0,0,0,0,0,0,0,0,0,0,0,0,0,0,0,0,0,0,0,0,0,0,0,0,0,0,0,0,0,0,0,0,0,0,0,0,0,0,0,0,0,0,0,-0.0252,-0.0252,0,-0.0155,-0.0154,-0.0152,-0.0101,-0.0101,-0.0101,-0.0101,0.0045,0.0049,0.0053,0,0,0,0,0,0,0,0,0,0,0,0,0,-0.033,-0.0329,-0.0253,-0.0251,-0.025,-0.0155,-0.0154,-0.0152,-0.0101,-0.0101,-0.0101,-0.0101,0.0044,0.0048,0.0053,0,0,0,0,0,0,0,0,0,0,0,0,0,-0.027,-0.0329,-0.0253,-0.0214,-0.021,-0.0155,-0.0154,-0.0152,-0.0101,-0.0101,-0.0101,-0.0101,0.0042,0.0048,0.0054,0.0092,0,0,0.0072,0.0074,0,0,0,0,0,0,0,0,-0.0273,-0.0267,-0.0221,-0.0217,-0.0212,-0.0141,-0.0127,-0.0068,-0.0101,-0.0141,-0.0101,-0.0101,-0.0014,-0.0003,0.0017,0.0099,0.0105,0.0072,0.0076,0.0078,0.008,0,0,0,0,0,0,0,-0.0278,-0.027,-0.0212,-0.022,-0.0215,-0.018,-0.0172,-0.0116,-0.0076,-0.0137,-0.0134,-0.0125,-0.0011,0.0011,0.0021,0.0107,0.0072,0.0077,0.0081,0.0083,0.025,0.0251,0,0,0,0,0,0,-0.0296,-0.0275,-0.0216,-0.021,-0.0245,-0.0179,-0.017,-0.0163,-0.0078,-0.0065,-0.0125,-0.0123,0.0001,0.0014,0.0026,0.0071,0.0078,0.0084,0.0087,0.0249,0.025,0.0251,0,0,0,0,0,0,-0.0298,-0.0292,-0.0219,-0.0241,-0.023,-0.0178,-0.017,-0.0161,-0.0143,-0.0069,-0.0056,-0.0118,0.0001,0.0018,0.0076,0.0077,0.0087,0.0092,0.0248,0.025,0.0251,0.0164,0,0,0,0,0,0,-0.0301,-0.0293,-0.0297,-0.0242,-0.0229,-0.0198,-0.017,-0.0159,-0.0138,-0.0134,-0.0058,-0.0044,0.0002,0.0067,0.0082,0.0085,0.0097,0.0247,0.0249,0.025,0.0166,0.0162,0.0159,0,0,0,0,0,-0.0304,-0.0317,-0.0298,-0.0291,-0.0236,-0.0199,-0.0189,-0.0151,-0.0138,-0.0134,-0.0077,-0.0047,0.0089,0.0072,0.009,0.0095,0.0246,0.0248,0.025,0.0167,0.0163,0.0159,0,0,0,0,0,0,-0.0356,-0.0311,-0.029,-0.0289,-0.025,-0.0191,-0.0189,-0.0157,-0.0109,-0.0106,-0.0036,-0.0018,0.0035,0.0082,0.0063,0.0151,0.0173,0.0179,0.0104,0.01,0.0097,0.007,0.0101,0,0,0,0,0,-0.0369,-0.0366,-0.0312,-0.0312,-0.0297,-0.0242,-0.0224,-0.0196,-0.0145,-0.0125,-0.0067,-0.0002,0.0059,0.009,0.015,0.0197,0.0229,0.0215,0.0211,0.0208,0.02,0.0235,0.0232,0.0258,0.0258,0.0258,0,0,-0.0391,-0.0365,-0.0364,-0.0323,-0.0293,-0.0277,-0.0232,-0.0211,-0.0192,-0.0115,-0.0075,-0.0012,0.007,0.0121,0.0149,0.0158,0.0222,0.021,0.0206,0.0201,0.0236,0.0233,0.0231,0.0259,0.0259,0.0259,0,0,-0.0436,-0.041,-0.0422,-0.0393,-0.0352,-0.0312,-0.031,-0.0249,-0.0218,-0.0167,-0.0106,-0.0045,0.0046,0.0104,0.0146,0.0164,0.0203,0.0185,0.0144,0.0178,0.0175,0.0173,0.0216,0.0218,0.0182,0.0182,0.0182,0,-0.0467,-0.0465,-0.042,-0.042,-0.0401,-0.0334,-0.0334,-0.0291,-0.0217,-0.019,-0.0168,-0.003,0.0038,0.0105,0.0113,0.0154,0.0177,0.0145,0.0169,0.0168,0.0167,0.0211,0.0215,0.0178,0.0179,0.0179,0.0179,0,-0.0514,-0.0508,-0.0514,-0.0488,-0.0462,-0.0452,-0.0387,-0.0355,-0.0306,-0.0256,-0.0183,-0.0087,-0.0008,0.0028,0.0078,0.0115,0.0136,0.0156,0.0166,0.0158,0.0207,0.0212,0.0172,0.0174,0.0175,0.0176,0,0,-0.0585,-0.0555,-0.0555,-0.055,-0.0494,-0.0478,-0.0447,-0.0393,-0.0371,-0.0294,-0.026,-0.0146,-0.0096,-0.0044,0.0029,0.0064,0.0091,0.0098,0.0102,0.0118,0.0163,0.0211,0.0222,0.01,0.0101,0.0101,0.02,0,-0.0631,-0.0651,-0.0615,-0.0619,-0.0618,-0.0548,-0.0523,-0.0466,-0.0401,-0.0351,-0.0253,-0.0187,-0.0122,-0.0082,-0.0039,0.0068,0.0099,0.0062,0.0189,0.0193,0.0217,0.0228,0.0265,0.0359,0.0206,0.0207,0.0207,0,-0.068,-0.0684,-0.0705,-0.0675,-0.0668,-0.0659,-0.0603,-0.0569,-0.0482,-0.0432,-0.0358,-0.0277,-0.0183,-0.0142,0.0006,-0.0025,0.0054,0.0126,0.0132,0.0208,0.0251,0.0345,0.0375,0.0522,0.0216,0.0215,0.0215,0,-0.0742,-0.0739,-0.0758,-0.0748,-0.071,-0.0703,-0.0676,-0.06,-0.0569,-0.0483,-0.045,-0.0336,-0.0267,-0.0163,0.0005,-0.0002,0.0155,0.0169,0.0285,0.029,0.0365,0.0376,0.0532,0.0243,0.0243,0.0243,0.0243,0,-0.0793,-0.0805,-0.0792,-0.0801,-0.0819,-0.0766,-0.0761,-0.0713,-0.0647,-0.0615,-0.05,-0.044,-0.0274,-0.0152,-0.0022,0.0161,0.0139,0.0281,0.0318,0.0339,0.0346,0.0513,0.0566,0.0247,0.0246,0.0245,0.0244,0,-0.0847,-0.0839,-0.0862,-0.0849,-0.0848,-0.086,-0.0828,-0.0818,-0.0743,-0.0698,-0.0674,-0.0516,-0.0342,-0.0167,0.0027,0.014,0.0397,0.0361,0.0383,0.042,0.0659,0.0705,0.0892,0.0969,0.0504,0.0506,0.0507,0,-0.0872,-0.0893,-0.0912,-0.0934,-0.0931,-0.0938,-0.094,-0.0877,-0.0857,-0.0732,-0.0714,-0.054,-0.0394,-0.0079,0.0149,0.0386,0.0487,0.0543,0.0539,0.0684,0.0762,0.0794,0.0847,0.0612,0.0615,0.0616,0.0618,0,-0.0916,-0.0927,-0.0949,-0.1005,-0.1025,-0.104,-0.1033,-0.1033,-0.0947,-0.0882,-0.0756,-0.0628,-0.0303,-0.0,0.0307,0.045,0.0658,0.0587,0.0734,0.0858,0.0907,0.0994,0.0541,0.0634,0.0632,0.0631,0.063,0.063,-0.0944,-0.098,-0.1018,-0.1066,-0.1098,-0.1124,-0.1128,-0.1103,-0.1058,-0.0936,-0.0806,-0.0583,-0.0141,0.0317,0.0486,0.0853,0.081,0.0959,0.1003,0.1023,0.1098,0.0683,0.0815,0.0815,0.0814,0.0814,0.0813,0,-0.0971,-0.1016,-0.1073,-0.1126,-0.117,-0.1169,-0.1172,-0.1148,-0.1092,-0.0955,-0.0802,-0.032,0.013,0.0534,0.1055,0.1255,0.1291,0.1354,0.1413,0.1446,0.1087,0.1094,0.1296,0.1296,0.1296,0.1296,0.1296,0.1296,-0.0987,-0.1051,-0.1087,-0.1167,-0.1204,-0.1228,-0.1224,-0.1173,-0.1073,-0.0824,-0.0563,-0.0356,0.0242,0.1115,0.1609,0.1653,0.1804,0.1798,0.1875,0.1635,0.1601,0.1569,0.159,0.1893,0.1894,0.2225,0.2228,0.2231]}],[{"header":{"parameterUnit":"m.s-1","parameterCategory":2,"la1":30.2991,"la2":30.254,"lo1":-89.0895,"lo2":-89.0444,"dy":0.0017,"dx":0.0017,"nx":28,"ny":28,"refTime":"2025-08-31T21:00:00:Z","depth":"2","parameterNumber":2,"parameterNumberName":"U-component_of_CURRENTS"},"data":[0,0,0,0,0,0,0,0,0,0,0,0,0,0,0,0,0,0,0,0,0,0,0,0,0,0,0,0,0,0,0,0,0,0,0,0,0,0,0,0,0,0,0,0,0,0,0,0,0,0,0,0,0,0,0,0,0,0,-0.2661,-0.2662,0,-0.2688,-0.2688,-0.2688,-0.2671,-0.2671,-0.2671,-0.2671,-0.27,-0.2701,-0.2702,0,0,0,0,0,0,0,0,0,0,0,0,0,-0.2559,-0.2561,-0.2661,-0.2662,-0.2663,-0.2688,-0.2688,-0.2688,-0.2672,-0.2671,-0.2671,-0.2671,-0.2699,-0.2701,-0.2702,0,0,0,0,0,0,0,0,0,0,0,0,0,-0.2591,-0.2561,-0.2661,-0.2662,-0.2662,-0.2688,-0.2688,-0.2688,-0.2672,-0.2671,-0.2671,-0.267,-0.2699,-0.27,-0.2702,-0.272,0,0,-0.2707,-0.2707,0,0,0,0,0,0,0,0,-0.259,-0.2594,-0.2661,-0.2662,-0.2663,-0.2681,-0.2663,-0.2701,-0.2672,-0.2662,-0.2671,-0.267,-0.2698,-0.2699,-0.2697,-0.2721,-0.2722,-0.2707,-0.2708,-0.2708,-0.2709,0,0,0,0,0,0,0,-0.2587,-0.2593,-0.2666,-0.2662,-0.2663,-0.2649,-0.2653,-0.2669,-0.2678,-0.2663,-0.2663,-0.2675,-0.2697,-0.2696,-0.2698,-0.2723,-0.2707,-0.2708,-0.2709,-0.271,-0.2836,-0.2838,0,0,0,0,0,0,-0.2598,-0.2592,-0.2665,-0.2668,-0.2631,-0.2652,-0.2656,-0.2671,-0.2677,-0.268,-0.2676,-0.2675,-0.2693,-0.2696,-0.2699,-0.275,-0.2708,-0.271,-0.2711,-0.2834,-0.2836,-0.2839,0,0,0,0,0,0,-0.2596,-0.2605,-0.2664,-0.2634,-0.2641,-0.2655,-0.2671,-0.2672,-0.268,-0.2688,-0.2689,-0.2685,-0.2693,-0.2697,-0.2739,-0.275,-0.2711,-0.2712,-0.2831,-0.2834,-0.2838,-0.2833,0,0,0,0,0,0,-0.2593,-0.2603,-0.2613,-0.2635,-0.2644,-0.2707,-0.2673,-0.2673,-0.269,-0.2689,-0.2697,-0.2698,-0.2693,-0.2737,-0.2741,-0.2751,-0.2713,-0.2828,-0.2832,-0.2837,-0.283,-0.2836,-0.2841,0,0,0,0,0,-0.2589,-0.2609,-0.2613,-0.2622,-0.2658,-0.271,-0.2714,-0.2716,-0.2691,-0.2716,-0.2718,-0.2698,-0.2769,-0.2741,-0.2744,-0.2755,-0.2825,-0.2831,-0.2836,-0.2827,-0.2835,-0.2841,0,0,0,0,0,0,-0.2562,-0.2611,-0.2615,-0.2646,-0.2689,-0.271,-0.2727,-0.2725,-0.2742,-0.2741,-0.2726,-0.273,-0.2775,-0.2779,-0.2748,-0.2812,-0.2796,-0.2802,-0.2788,-0.2795,-0.28,-0.2732,-0.2714,0,0,0,0,0,-0.2564,-0.2591,-0.2642,-0.2664,-0.2692,-0.2709,-0.2725,-0.274,-0.276,-0.2766,-0.2768,-0.2781,-0.28,-0.2808,-0.2837,-0.2865,-0.2822,-0.288,-0.2886,-0.289,-0.2843,-0.2791,-0.2784,-0.2857,-0.2857,-0.2857,0,0,-0.2555,-0.2587,-0.2599,-0.2661,-0.2686,-0.2712,-0.2717,-0.2765,-0.2769,-0.2769,-0.2777,-0.2808,-0.2819,-0.2854,-0.2873,-0.2854,-0.2861,-0.2897,-0.29,-0.2849,-0.2795,-0.2787,-0.278,-0.2861,-0.286,-0.2859,0,0,-0.2546,-0.259,-0.2607,-0.265,-0.2713,-0.2733,-0.2751,-0.2796,-0.2805,-0.2845,-0.2835,-0.2857,-0.2906,-0.2888,-0.2888,-0.2942,-0.2902,-0.2984,-0.2935,-0.2887,-0.2878,-0.287,-0.2846,-0.2835,-0.2973,-0.2973,-0.2973,0,-0.2526,-0.2552,-0.2621,-0.2651,-0.2668,-0.2738,-0.275,-0.2781,-0.2827,-0.2822,-0.286,-0.288,-0.2903,-0.2877,-0.2904,-0.2943,-0.2923,-0.2901,-0.2885,-0.2876,-0.2867,-0.2844,-0.2832,-0.2973,-0.2973,-0.2973,-0.2973,0,-0.2526,-0.255,-0.2572,-0.2619,-0.2658,-0.2696,-0.2754,-0.2788,-0.2817,-0.283,-0.2853,-0.2886,-0.2878,-0.2915,-0.2924,-0.2881,-0.2893,-0.2903,-0.2848,-0.2858,-0.2836,-0.2823,-0.2974,-0.2974,-0.2974,-0.2973,0,0,-0.2458,-0.2547,-0.2549,-0.2562,-0.2644,-0.2676,-0.2702,-0.273,-0.2726,-0.279,-0.2762,-0.2806,-0.282,-0.282,-0.284,-0.2802,-0.2756,-0.2826,-0.2823,-0.2764,-0.2664,-0.263,-0.2613,-0.2762,-0.2759,-0.2757,-0.2686,0,-0.2422,-0.2452,-0.2505,-0.2521,-0.2542,-0.2611,-0.2625,-0.2667,-0.2712,-0.2723,-0.2742,-0.2757,-0.2786,-0.2799,-0.276,-0.2771,-0.2716,-0.2774,-0.2694,-0.2691,-0.2626,-0.2594,-0.2436,-0.2354,-0.2673,-0.2671,-0.2669,0,-0.2384,-0.2412,-0.2418,-0.2468,-0.2484,-0.25,-0.2529,-0.2558,-0.2596,-0.2634,-0.2633,-0.2674,-0.2641,-0.268,-0.2614,-0.2657,-0.2638,-0.2636,-0.2634,-0.2574,-0.263,-0.2393,-0.2318,-0.2647,-0.2649,-0.2651,-0.2652,0,-0.229,-0.2342,-0.2336,-0.2358,-0.2432,-0.2432,-0.2464,-0.2513,-0.2538,-0.2566,-0.2593,-0.2569,-0.2579,-0.2536,-0.2557,-0.2581,-0.249,-0.2525,-0.2458,-0.2458,-0.2286,-0.2274,-0.2423,-0.2423,-0.2423,-0.2423,-0.2423,0,-0.2222,-0.222,-0.2294,-0.2297,-0.2296,-0.2368,-0.237,-0.2409,-0.2458,-0.2477,-0.253,-0.2537,-0.2543,-0.2523,-0.2515,-0.2446,-0.2446,-0.2409,-0.2413,-0.2291,-0.2282,-0.2503,-0.2513,-0.2421,-0.2421,-0.2422,-0.2422,0,-0.2122,-0.2169,-0.2176,-0.2239,-0.2255,-0.2256,-0.2328,-0.2338,-0.2399,-0.2422,-0.2434,-0.2495,-0.2476,-0.2474,-0.2424,-0.2393,-0.234,-0.2308,-0.2182,-0.2171,-0.2352,-0.2364,-0.2207,-0.2205,-0.2203,-0.2201,-0.22,0,-0.2071,-0.2064,-0.2123,-0.2128,-0.2154,-0.2179,-0.22,-0.2286,-0.2311,-0.2396,-0.2396,-0.2413,-0.2404,-0.2333,-0.228,-0.2209,-0.2276,-0.2019,-0.2014,-0.2297,-0.2318,-0.2333,-0.2347,-0.1808,-0.1803,-0.1799,-0.1796,0,-0.1971,-0.1995,-0.2008,-0.2027,-0.2045,-0.2071,-0.2111,-0.2126,-0.2226,-0.2253,-0.2282,-0.2284,-0.2257,-0.2126,-0.2058,-0.1999,-0.2022,-0.1943,-0.222,-0.1904,-0.1918,-0.1941,-0.1968,-0.1764,-0.1767,-0.1769,-0.1771,-0.1772,-0.1888,-0.1879,-0.19,-0.1905,-0.193,-0.1935,-0.1913,-0.1976,-0.1992,-0.2011,-0.2105,-0.2057,-0.2045,-0.1868,-0.1773,-0.17,-0.1837,-0.1746,-0.1757,-0.1772,-0.1755,-0.1767,-0.1582,-0.1584,-0.1586,-0.1587,-0.1589,0,-0.1775,-0.1778,-0.1778,-0.1778,-0.1753,-0.1812,-0.183,-0.1788,-0.1762,-0.1818,-0.1822,-0.165,-0.1579,-0.1574,-0.1425,-0.1392,-0.1371,-0.132,-0.1298,-0.1332,-0.1361,-0.1324,-0.1035,-0.1034,-0.1032,-0.103,0,0,-0.1715,-0.1672,-0.1675,-0.1593,-0.1592,-0.1519,-0.1498,-0.1463,-0.1467,-0.1404,-0.1391,-0.1514,-0.1547,-0.13,-0.1234,-0.1118,-0.1209,-0.1057,-0.1503,-0.1511,-0.1539,-0.161,-0.159,0,0,0,0,0]},{"header":{"parameterUnit":"m.s-1","parameterCategory":2,"la1":30.2991,"la2":30.254,"lo1":-89.0895,"lo2":-89.0444,"dy":0.0017,"dx":0.0017,"nx":28,"ny":28,"refTime":"2025-08-31T21:00:00:Z","depth":"2","parameterNumber":3,"parameterNumberName":"V-component_of_CURRENTS"},"data":[0,0,0,0,0,0,0,0,0,0,0,0,0,0,0,0,0,0,0,0,0,0,0,0,0,0,0,0,0,0,0,0,0,0,0,0,0,0,0,0,0,0,0,0,0,0,0,0,0,0,0,0,0,0,0,0,0,0,-0.0287,-0.0287,0,-0.0223,-0.0222,-0.0221,-0.0175,-0.0175,-0.0174,-0.0174,-0.0044,-0.0041,-0.0038,0,0,0,0,0,0,0,0,0,0,0,0,0,-0.0328,-0.0328,-0.0287,-0.0287,-0.0286,-0.0223,-0.0222,-0.0221,-0.0175,-0.0175,-0.0174,-0.0174,-0.0045,-0.0041,-0.0037,0,0,0,0,0,0,0,0,0,0,0,0,0,-0.0291,-0.0328,-0.0288,-0.0256,-0.0253,-0.0223,-0.0222,-0.0221,-0.0175,-0.0175,-0.0174,-0.0174,-0.0046,-0.0041,-0.0037,-0.0015,0,0,-0.0022,-0.002,0,0,0,0,0,0,0,0,-0.0293,-0.0289,-0.0262,-0.0258,-0.0255,-0.0208,-0.0189,-0.0149,-0.0175,-0.0203,-0.0174,-0.0174,-0.0094,-0.0085,-0.0073,-0.0009,-0.0003,-0.0022,-0.0019,-0.0017,-0.0015,0,0,0,0,0,0,0,-0.0296,-0.0291,-0.0261,-0.0261,-0.0257,-0.0231,-0.0226,-0.0181,-0.0149,-0.0201,-0.0197,-0.0193,-0.0091,-0.0078,-0.0069,-0.0001,-0.0022,-0.0017,-0.0014,-0.0013,0.0117,0.0118,0,0,0,0,0,0,-0.0309,-0.0294,-0.0263,-0.0259,-0.0275,-0.0231,-0.0225,-0.0222,-0.0151,-0.0141,-0.0193,-0.0191,-0.0086,-0.0075,-0.0064,-0.0026,-0.0017,-0.0012,-0.0009,0.0117,0.0117,0.0118,0,0,0,0,0,0,-0.031,-0.0307,-0.0265,-0.0276,-0.0269,-0.0231,-0.0228,-0.0221,-0.0207,-0.0146,-0.0134,-0.0187,-0.0085,-0.0071,-0.0029,-0.0021,-0.001,-0.0006,0.0116,0.0117,0.0118,0.0045,0,0,0,0,0,0,-0.0311,-0.0308,-0.0312,-0.0277,-0.0269,-0.0256,-0.0229,-0.022,-0.0205,-0.0202,-0.0137,-0.0124,-0.0084,-0.0037,-0.0024,-0.0014,-0.0002,0.0115,0.0116,0.0117,0.0046,0.0043,0.004,0,0,0,0,0,-0.0313,-0.0326,-0.0312,-0.0309,-0.0275,-0.0257,-0.025,-0.0221,-0.0206,-0.0205,-0.016,-0.0126,-0.002,-0.0033,-0.0018,-0.0007,0.0115,0.0116,0.0117,0.0048,0.0044,0.004,0,0,0,0,0,0,-0.035,-0.0322,-0.0306,-0.031,-0.0287,-0.0249,-0.0249,-0.0225,-0.019,-0.0185,-0.0125,-0.011,-0.0068,-0.0027,-0.0041,0.0036,0.0056,0.006,-0.0002,-0.0005,-0.0008,-0.0023,0.0002,0,0,0,0,0,-0.036,-0.0361,-0.0327,-0.0332,-0.0323,-0.0285,-0.0274,-0.0253,-0.0217,-0.0202,-0.0155,-0.01,-0.0052,-0.0022,0.0024,0.0063,0.0099,0.0084,0.008,0.0077,0.0077,0.0125,0.0125,0.0122,0.0122,0.0122,0,0,-0.0379,-0.0362,-0.0364,-0.034,-0.032,-0.0313,-0.0278,-0.0267,-0.0254,-0.0192,-0.0162,-0.0114,-0.0045,-0.0004,0.002,0.0032,0.0098,0.0079,0.0075,0.0077,0.0126,0.0126,0.0126,0.0123,0.0123,0.0122,0,0,-0.0419,-0.0399,-0.0413,-0.0393,-0.0367,-0.034,-0.0339,-0.03,-0.0275,-0.0241,-0.0191,-0.0142,-0.007,-0.0019,0.0016,0.0026,0.0075,0.0046,0.0023,0.0068,0.0069,0.0069,0.0111,0.0116,0.0049,0.0049,0.0049,0,-0.0444,-0.0448,-0.0415,-0.0418,-0.0405,-0.0356,-0.0361,-0.033,-0.0281,-0.0257,-0.0241,-0.0129,-0.0075,-0.0014,-0.001,0.0019,0.0049,0.0026,0.0062,0.0063,0.0065,0.0108,0.0114,0.0045,0.0046,0.0046,0.0046,0,-0.0488,-0.0486,-0.0493,-0.0476,-0.0459,-0.0456,-0.0408,-0.0384,-0.0346,-0.0306,-0.0244,-0.0172,-0.0103,-0.0075,-0.0039,0.0008,0.0026,0.0044,0.0063,0.006,0.0106,0.0114,0.0041,0.0042,0.0043,0.0044,0,0,-0.0554,-0.053,-0.0531,-0.0527,-0.0486,-0.0478,-0.0452,-0.041,-0.0389,-0.033,-0.0295,-0.0206,-0.0163,-0.0119,-0.0062,-0.0018,0.0021,0.0013,0.0017,0.0039,0.0117,0.0151,0.0163,0.0039,0.004,0.0041,0.0141,0,-0.0596,-0.0618,-0.0586,-0.0594,-0.0595,-0.0536,-0.0516,-0.0469,-0.0414,-0.0369,-0.0283,-0.0229,-0.018,-0.0147,-0.0096,-0.0004,0.0039,-0.0008,0.013,0.0134,0.0153,0.0173,0.0146,0.0236,0.0149,0.015,0.0151,0,-0.0643,-0.0648,-0.0669,-0.0642,-0.0637,-0.0632,-0.0581,-0.0555,-0.0473,-0.0429,-0.0358,-0.0289,-0.0201,-0.017,-0.0022,-0.0057,0.0021,0.0087,0.0093,0.0157,0.0184,0.0228,0.0254,0.0165,0.0164,0.0163,0.0162,0,-0.07,-0.0699,-0.0718,-0.071,-0.0677,-0.067,-0.0648,-0.0577,-0.055,-0.0467,-0.0436,-0.0324,-0.0264,-0.0154,-0.0008,-0.0016,0.0145,0.0156,0.026,0.0263,0.0286,0.0289,0.0248,0.0248,0.0247,0.0247,0.0247,0,-0.0748,-0.0759,-0.0749,-0.0758,-0.0775,-0.0728,-0.0722,-0.0678,-0.0615,-0.0584,-0.0476,-0.042,-0.026,-0.0142,-0.0021,0.0151,0.0142,0.0263,0.0296,0.0261,0.0261,0.0236,0.0233,0.0251,0.025,0.0249,0.0249,0,-0.0798,-0.0792,-0.0813,-0.0803,-0.0803,-0.0814,-0.0785,-0.0775,-0.0704,-0.0661,-0.0638,-0.0488,-0.0323,-0.0157,0.0035,0.014,0.0296,0.0353,0.0302,0.0326,0.0383,0.0376,0.0482,0.0484,0.0486,0.0488,0.0489,0,-0.0821,-0.0842,-0.0861,-0.0882,-0.088,-0.0888,-0.0891,-0.0831,-0.0812,-0.0694,-0.0677,-0.0511,-0.0375,-0.0074,0.0137,0.0361,0.0352,0.0456,0.0443,0.0389,0.0409,0.0399,0.0389,0.0444,0.0445,0.0446,0.0446,0,-0.0863,-0.0874,-0.0895,-0.095,-0.097,-0.0984,-0.0979,-0.0978,-0.0897,-0.0836,-0.0719,-0.06,-0.0299,-0.0043,0.0245,0.0371,0.042,0.0477,0.0446,0.0386,0.0361,0.0378,0.0368,0.0452,0.0452,0.0451,0.0451,0.0451,-0.089,-0.0924,-0.0961,-0.1008,-0.1039,-0.1064,-0.1069,-0.1044,-0.1002,-0.0887,-0.0769,-0.0567,-0.0312,0.0107,0.0317,0.0507,0.0506,0.0548,0.0543,0.0537,0.0512,0.0491,0.0602,0.0603,0.0603,0.0603,0.0603,0,-0.0917,-0.0959,-0.1014,-0.1065,-0.1108,-0.1108,-0.1111,-0.1086,-0.1034,-0.0908,-0.0767,-0.0479,-0.0175,0.0087,0.0399,0.0587,0.0564,0.0608,0.054,0.0533,0.0528,0.0499,0.0588,0.0588,0.0589,0.0589,0,0,-0.0933,-0.0994,-0.1027,-0.1105,-0.1142,-0.1167,-0.1164,-0.1109,-0.1016,-0.0879,-0.0726,-0.0509,-0.0178,0.0034,0.0277,0.044,0.0432,0.0452,0.0446,0.0331,0.0322,0.048,0.0428,0,0,0,0,0]}],[{"header":{"parameterUnit":"m.s-1","parameterCategory":2,"la1":30.2991,"la2":30.254,"lo1":-89.0895,"lo2":-89.0444,"dy":0.0017,"dx":0.0017,"nx":28,"ny":28,"refTime":"2025-08-31T21:00:00:Z","depth":"4","parameterNumber":2,"parameterNumberName":"U-component_of_CURRENTS"},"data":[0,0,0,0,0,0,0,0,0,0,0,0,0,0,0,0,0,0,0,0,0,0,0,0,0,0,0,0,0,0,0,0,0,0,0,0,0,0,0,0,0,0,0,0,0,0,0,0,0,0,0,0,0,0,0,0,0,0,-0.1573,-0.1574,0,-0.1616,-0.1617,-0.1617,-0.1641,-0.1641,-0.1641,-0.1641,-0.1674,-0.1675,-0.1676,0,0,0,0,0,0,0,0,0,0,0,0,0,-0.1593,-0.1592,-0.1573,-0.1574,-0.1574,-0.1616,-0.1617,-0.1617,-0.1641,-0.1641,-0.1641,-0.1641,-0.1674,-0.1675,-0.1676,0,0,0,0,0,0,0,0,0,0,0,0,0,-0.1604,-0.1592,-0.1573,-0.1592,-0.1594,-0.1616,-0.1617,-0.1617,-0.1641,-0.1641,-0.1641,-0.1642,-0.1674,-0.1675,-0.1676,-0.1679,0,0,-0.168,-0.168,0,0,0,0,0,0,0,0,-0.1603,-0.1603,-0.1588,-0.159,-0.1593,-0.1624,-0.1636,-0.1638,-0.1641,-0.1622,-0.1641,-0.1642,-0.1657,-0.1659,-0.1666,-0.1681,-0.1682,-0.168,-0.168,-0.1681,-0.1681,0,0,0,0,0,0,0,-0.1602,-0.1602,-0.159,-0.1589,-0.1592,-0.1626,-0.1627,-0.1637,-0.1637,-0.1624,-0.1626,-0.1632,-0.1658,-0.1665,-0.1667,-0.1683,-0.168,-0.1681,-0.1681,-0.1682,-0.1776,-0.1777,0,0,0,0,0,0,-0.1594,-0.1601,-0.1588,-0.1591,-0.16,-0.1625,-0.1626,-0.1613,-0.1638,-0.1642,-0.1632,-0.1633,-0.1663,-0.1666,-0.1669,-0.1726,-0.1681,-0.1682,-0.1683,-0.1774,-0.1776,-0.1778,0,0,0,0,0,0,-0.1594,-0.1591,-0.1586,-0.1599,-0.1601,-0.1624,-0.161,-0.1614,-0.1645,-0.1643,-0.1647,-0.1661,-0.1663,-0.1667,-0.1702,-0.1726,-0.1682,-0.1683,-0.1772,-0.1774,-0.1777,-0.1808,0,0,0,0,0,0,-0.1594,-0.159,-0.1603,-0.1597,-0.1599,-0.1614,-0.161,-0.1615,-0.1647,-0.165,-0.1669,-0.1671,-0.1664,-0.17,-0.1703,-0.1726,-0.1684,-0.1769,-0.1773,-0.1776,-0.1805,-0.1811,-0.1817,0,0,0,0,0,-0.1594,-0.1611,-0.1602,-0.1602,-0.1606,-0.1615,-0.162,-0.1638,-0.1648,-0.1666,-0.1684,-0.1672,-0.1724,-0.1702,-0.1705,-0.173,-0.1768,-0.1772,-0.1776,-0.1802,-0.181,-0.1817,0,0,0,0,0,0,-0.1631,-0.1614,-0.1605,-0.1617,-0.1619,-0.162,-0.1648,-0.1654,-0.1682,-0.1694,-0.1691,-0.1694,-0.1734,-0.1734,-0.1711,-0.177,-0.1746,-0.175,-0.1765,-0.1772,-0.1779,-0.1772,-0.1685,0,0,0,0,0,-0.1639,-0.165,-0.163,-0.1647,-0.1645,-0.1649,-0.1665,-0.1671,-0.1685,-0.1699,-0.1714,-0.1734,-0.175,-0.1763,-0.1778,-0.1809,-0.1796,-0.183,-0.1836,-0.1841,-0.1841,-0.1848,-0.1854,-0.1791,-0.1791,-0.1791,0,0,-0.1661,-0.1656,-0.1663,-0.1657,-0.1661,-0.1667,-0.166,-0.1687,-0.1703,-0.1698,-0.1744,-0.1757,-0.1764,-0.1798,-0.1816,-0.1802,-0.1854,-0.1846,-0.185,-0.1847,-0.1853,-0.1858,-0.1863,-0.1794,-0.1794,-0.1793,0,0,-0.1699,-0.1697,-0.1708,-0.1712,-0.1719,-0.1714,-0.1724,-0.1732,-0.1747,-0.1782,-0.1785,-0.1809,-0.1845,-0.1845,-0.185,-0.1901,-0.1886,-0.1923,-0.1947,-0.1955,-0.1959,-0.1963,-0.195,-0.1953,-0.1926,-0.1926,-0.1926,0,-0.172,-0.1722,-0.1719,-0.1729,-0.174,-0.1733,-0.1745,-0.1757,-0.1784,-0.1804,-0.1805,-0.1862,-0.1859,-0.189,-0.1906,-0.1911,-0.1916,-0.1912,-0.196,-0.1964,-0.1967,-0.1953,-0.1955,-0.1928,-0.1928,-0.1928,-0.1927,0,-0.1743,-0.1762,-0.1774,-0.1772,-0.1792,-0.1804,-0.1803,-0.1834,-0.1851,-0.1861,-0.1909,-0.1909,-0.194,-0.1948,-0.1938,-0.1972,-0.1968,-0.1964,-0.1933,-0.1974,-0.1958,-0.196,-0.1931,-0.193,-0.193,-0.1929,0,0,-0.1711,-0.1773,-0.1775,-0.1788,-0.1812,-0.1816,-0.1861,-0.1878,-0.1904,-0.1937,-0.1973,-0.1992,-0.2001,-0.2007,-0.2004,-0.2007,-0.2019,-0.2003,-0.2002,-0.1976,-0.2036,-0.1904,-0.1893,-0.2035,-0.2036,-0.2036,-0.2012,0,-0.1711,-0.1746,-0.1783,-0.1818,-0.1821,-0.1858,-0.1893,-0.1927,-0.1952,-0.1989,-0.2,-0.2029,-0.202,-0.2035,-0.2041,-0.2027,-0.2028,-0.2026,-0.2012,-0.2011,-0.1877,-0.1891,-0.2039,-0.2013,-0.2013,-0.2014,-0.2014,0,-0.1682,-0.1714,-0.1755,-0.1823,-0.1829,-0.1863,-0.1914,-0.1947,-0.2004,-0.2032,-0.2075,-0.2087,-0.2102,-0.2083,-0.2081,-0.209,-0.2068,-0.205,-0.2049,-0.1914,-0.1882,-0.1967,-0.2016,-0.2016,-0.2016,-0.2016,-0.2016,0,-0.1608,-0.168,-0.1715,-0.1736,-0.1815,-0.1857,-0.1897,-0.1963,-0.1991,-0.2058,-0.2085,-0.2122,-0.2124,-0.2126,-0.209,-0.2098,-0.2074,-0.2075,-0.1936,-0.1927,-0.2038,-0.2035,-0.2071,-0.2071,-0.2071,-0.2071,-0.2071,0,-0.155,-0.1579,-0.169,-0.1702,-0.1749,-0.1823,-0.1874,-0.1928,-0.2001,-0.2025,-0.2095,-0.2105,-0.2138,-0.2129,-0.2107,-0.2012,-0.2086,-0.1931,-0.191,-0.2053,-0.2051,-0.2038,-0.2035,-0.207,-0.207,-0.207,-0.2071,0,-0.1454,-0.1528,-0.1573,-0.168,-0.1714,-0.1746,-0.1852,-0.188,-0.1966,-0.2001,-0.2023,-0.209,-0.2075,-0.2084,-0.2065,-0.1998,-0.1943,-0.1894,-0.2035,-0.2023,-0.179,-0.1789,-0.1736,-0.1731,-0.1727,-0.1723,-0.172,0,-0.1406,-0.1422,-0.1541,-0.1571,-0.1625,-0.1692,-0.1734,-0.1843,-0.1871,-0.1967,-0.1963,-0.1996,-0.2019,-0.1879,-0.1917,-0.1858,-0.1837,-0.1797,-0.18,-0.177,-0.1755,-0.1761,-0.1765,-0.1714,-0.1713,-0.1712,-0.171,0,-0.1314,-0.1373,-0.1415,-0.1479,-0.1535,-0.1584,-0.1652,-0.1657,-0.1767,-0.1868,-0.1842,-0.1827,-0.1803,-0.1783,-0.1742,-0.1708,-0.1818,-0.1754,-0.1763,-0.1765,-0.1743,-0.1734,-0.1743,-0.1696,-0.1698,-0.17,-0.17,0,-0.1248,-0.1259,-0.1326,-0.1365,-0.1433,-0.1444,-0.15,-0.1526,-0.1567,-0.1681,-0.1669,-0.1711,-0.1781,-0.1704,-0.1674,-0.1621,-0.16,-0.1545,-0.1564,-0.158,-0.154,-0.149,-0.1336,0,0,0,0,0,-0.1174,-0.1172,-0.1204,-0.1241,-0.1303,-0.1337,-0.1429,-0.1488,-0.1598,-0.1532,-0.1593,-0.1569,-0.1525,-0.1556,-0.1466,-0.1604,-0.1606,-0.1492,-0.1554,-0.1616,-0.1633,-0.16,0,0,0,0,0,0,-0.1125,-0.1151,-0.116,-0.1124,-0.1123,-0.1174,-0.1223,-0.1302,-0.1275,-0.1393,-0.1374,-0.1466,-0.1445,-0.1541,-0.1429,-0.1436,-0.144,-0.1532,-0.1528,-0.1607,-0.1622,-0.1635,-0.1607,0,0,0,0,0]},{"header":{"parameterUnit":"m.s-1","parameterCategory":2,"la1":30.2991,"la2":30.254,"lo1":-89.0895,"lo2":-89.0444,"dy":0.0017,"dx":0.0017,"nx":28,"ny":28,"refTime":"2025-08-31T21:00:00:Z","depth":"4","parameterNumber":3,"parameterNumberName":"V-component_of_CURRENTS"},"data":[0,0,0,0,0,0,0,0,0,0,0,0,0,0,0,0,0,0,0,0,0,0,0,0,0,0,0,0,0,0,0,0,0,0,0,0,0,0,0,0,0,0,0,0,0,0,0,0,0,0,0,0,0,0,0,0,0,0,-0.0264,-0.0264,0,-0.0247,-0.0247,-0.0246,-0.0219,-0.0218,-0.0218,-0.0218,-0.0165,-0.0164,-0.0163,0,0,0,0,0,0,0,0,0,0,0,0,0,-0.0259,-0.026,-0.0264,-0.0264,-0.0264,-0.0247,-0.0247,-0.0246,-0.0219,-0.0218,-0.0218,-0.0218,-0.0165,-0.0164,-0.0163,0,0,0,0,0,0,0,0,0,0,0,0,0,-0.0252,-0.026,-0.0264,-0.0249,-0.0248,-0.0247,-0.0247,-0.0246,-0.0219,-0.0218,-0.0218,-0.0217,-0.0166,-0.0164,-0.0163,-0.0164,0,0,-0.0158,-0.0157,0,0,0,0,0,0,0,0,-0.0253,-0.0252,-0.0252,-0.025,-0.0249,-0.0236,-0.0226,-0.0217,-0.0219,-0.0228,-0.0218,-0.0217,-0.0187,-0.0183,-0.018,-0.0161,-0.0159,-0.0158,-0.0157,-0.0156,-0.0155,0,0,0,0,0,0,0,-0.0253,-0.0253,-0.0256,-0.0252,-0.025,-0.0239,-0.0237,-0.0224,-0.0209,-0.0228,-0.0226,-0.0227,-0.0185,-0.0181,-0.0178,-0.0158,-0.0158,-0.0156,-0.0155,-0.0155,-0.0143,-0.0143,0,0,0,0,0,0,-0.026,-0.0254,-0.0256,-0.0256,-0.0251,-0.024,-0.0238,-0.0239,-0.021,-0.0206,-0.0227,-0.0225,-0.0184,-0.018,-0.0176,-0.0178,-0.0156,-0.0154,-0.0153,-0.0142,-0.0143,-0.0144,0,0,0,0,0,0,-0.026,-0.0261,-0.0257,-0.0255,-0.0254,-0.0241,-0.0242,-0.0239,-0.0238,-0.021,-0.0205,-0.0229,-0.0184,-0.0178,-0.0172,-0.0175,-0.0154,-0.0152,-0.0141,-0.0142,-0.0143,-0.018,0,0,0,0,0,0,-0.026,-0.0261,-0.0266,-0.0256,-0.0255,-0.0264,-0.0243,-0.0239,-0.0239,-0.0237,-0.021,-0.0204,-0.0183,-0.0175,-0.0171,-0.0173,-0.0151,-0.014,-0.0142,-0.0143,-0.0178,-0.0182,-0.0185,0,0,0,0,0,-0.026,-0.0273,-0.0267,-0.0267,-0.0262,-0.0265,-0.0263,-0.025,-0.024,-0.0245,-0.0228,-0.0205,-0.0179,-0.0174,-0.0169,-0.0171,-0.014,-0.0141,-0.0143,-0.0176,-0.0181,-0.0185,0,0,0,0,0,0,-0.0278,-0.0271,-0.0264,-0.0275,-0.0273,-0.0261,-0.0266,-0.0256,-0.0247,-0.0244,-0.0215,-0.0208,-0.0207,-0.0187,-0.0182,-0.0172,-0.0155,-0.0156,-0.0182,-0.0187,-0.0191,-0.0172,-0.015,0,0,0,0,0,-0.0284,-0.0291,-0.0282,-0.0293,-0.0292,-0.028,-0.028,-0.0272,-0.0262,-0.0258,-0.0238,-0.022,-0.0209,-0.0197,-0.0187,-0.0179,-0.0136,-0.0178,-0.0181,-0.0185,-0.0167,-0.0102,-0.0097,-0.0148,-0.0148,-0.0148,0,0,-0.0297,-0.0293,-0.0299,-0.0298,-0.0293,-0.0297,-0.0278,-0.0284,-0.0285,-0.0254,-0.025,-0.0237,-0.0214,-0.0208,-0.0204,-0.0189,-0.0153,-0.0186,-0.0189,-0.0169,-0.0102,-0.0097,-0.0092,-0.0149,-0.0149,-0.0149,0,0,-0.0326,-0.032,-0.0334,-0.033,-0.0328,-0.0319,-0.0322,-0.0313,-0.0305,-0.0305,-0.0283,-0.0266,-0.0255,-0.0228,-0.0215,-0.0232,-0.0183,-0.0239,-0.0231,-0.0169,-0.0163,-0.0158,-0.0118,-0.0108,-0.0231,-0.0232,-0.0232,0,-0.0343,-0.0354,-0.0341,-0.0349,-0.0347,-0.033,-0.0341,-0.0333,-0.0322,-0.0308,-0.0311,-0.0271,-0.0258,-0.0226,-0.0237,-0.0238,-0.0201,-0.0216,-0.0171,-0.0165,-0.0158,-0.0118,-0.0107,-0.0233,-0.0233,-0.0233,-0.0233,0,-0.0378,-0.0384,-0.0392,-0.0392,-0.0389,-0.0399,-0.0381,-0.0375,-0.0364,-0.0345,-0.0321,-0.0297,-0.0264,-0.0267,-0.0258,-0.0211,-0.0201,-0.019,-0.0155,-0.0155,-0.0113,-0.0101,-0.0236,-0.0236,-0.0235,-0.0234,0,0,-0.0421,-0.0419,-0.0422,-0.0424,-0.0411,-0.0415,-0.0407,-0.0389,-0.0376,-0.0355,-0.0329,-0.0307,-0.0277,-0.026,-0.024,-0.0187,-0.013,-0.0171,-0.0167,-0.0123,-0.0001,-0.0022,-0.0011,-0.0106,-0.0104,-0.0102,0.0002,0,-0.0453,-0.0479,-0.0464,-0.0481,-0.0488,-0.0457,-0.0451,-0.0427,-0.0401,-0.0372,-0.0321,-0.0299,-0.028,-0.0268,-0.0208,-0.0156,-0.0095,-0.0159,-0.0014,-0.0009,-0.0021,0.0004,-0.0095,0.0012,0.0014,0.0017,0.0018,0,-0.0487,-0.0498,-0.0525,-0.0515,-0.0516,-0.0522,-0.0492,-0.0484,-0.0426,-0.0402,-0.0343,-0.0305,-0.0233,-0.0223,-0.0086,-0.0127,-0.0061,-0.0012,-0.0006,0.0004,-0.0007,0.0017,0.0041,0.0039,0.0038,0.0036,0.0035,0,-0.052,-0.0534,-0.0558,-0.0557,-0.0549,-0.055,-0.0543,-0.0495,-0.0482,-0.0416,-0.0394,-0.0294,-0.0258,-0.0145,-0.005,-0.006,0.01,0.01,0.0152,0.015,0.0155,0.0148,0.0219,0.0219,0.0219,0.0218,0.0218,0,-0.0548,-0.0565,-0.0581,-0.0593,-0.0617,-0.0591,-0.0595,-0.0566,-0.0521,-0.05,-0.0415,-0.0371,-0.0234,-0.0133,-0.0036,0.0092,0.012,0.017,0.0187,0.0131,0.012,0.0162,0.0154,0.0222,0.0221,0.0221,0.022,0,-0.057,-0.0582,-0.0612,-0.0626,-0.0635,-0.0651,-0.0648,-0.0642,-0.0593,-0.056,-0.0542,-0.0421,-0.0286,-0.0148,0.0026,0.0096,0.0224,0.0265,0.0186,0.0194,0.0229,0.0218,0.0343,0.0344,0.0344,0.0344,0.0344,0,-0.058,-0.0602,-0.0647,-0.0675,-0.0687,-0.071,-0.0722,-0.0687,-0.0672,-0.0588,-0.0571,-0.044,-0.0349,-0.011,0.003,0.0229,0.0251,0.0312,0.0288,0.0244,0.0248,0.0236,0.0225,0.0345,0.0345,0.0345,0.0345,0,-0.0595,-0.0622,-0.0649,-0.0715,-0.0749,-0.0774,-0.0785,-0.0779,-0.0727,-0.069,-0.0577,-0.0444,-0.0292,-0.011,0.0042,0.0182,0.0269,0.0315,0.0316,0.0294,0.0247,0.0248,0.0237,0.0346,0.0346,0.0346,0.0346,0,-0.0608,-0.0638,-0.0689,-0.0738,-0.0791,-0.0817,-0.082,-0.0787,-0.076,-0.0661,-0.0626,-0.045,-0.0344,-0.0133,0.0008,0.0142,0.0174,0.0207,0.0213,0.0214,0.0137,0.0057,0.013,0,0,0,0,0,-0.0611,-0.0649,-0.0705,-0.0759,-0.0813,-0.0837,-0.0849,-0.0837,-0.0793,-0.0719,-0.0666,-0.0518,-0.0287,-0.0179,-0.0045,-0.0,0.0182,0.0158,0.0218,0.0352,0.0351,0.0281,0,0,0,0,0,0,-0.0615,-0.0672,-0.0702,-0.0764,-0.0804,-0.085,-0.0859,-0.0832,-0.0774,-0.0714,-0.0584,-0.0502,-0.0273,-0.0363,-0.0047,-0.0005,0.0047,0.0273,0.0276,0.0353,0.0352,0.0351,0.0279,0,0,0,0,0]}]]